When you browse on this site, cookies collect data to enhance your experience and personalize the content and advertising you see.
Visit our Privacy Policy to learn more. By continuing to use the site, you agree to this use of cookies and data.
  • In Switzerland
  • List of Countries
  • For 7 days
  • Water Temperature
  • Weather Map
  • Weather Widgets
  • user-avatar
    Login

    Hourly Weather Limoges

    Today, 21 November, Thursday

    Time Temperature Precipitation Wind Pressure Humidity
    00:00 +3°C° 0 mm 3 mps 725 mmHg 90%
    01:00 +3°C° 0 mm 3 mps 724 mmHg 90%
    02:00 +4°C° 0 mm 2 mps 724 mmHg 90%
    03:00 +4°C° 0 mm 2 mps 724 mmHg 91%
    04:00 +4°C° 0 mm 2 mps 724 mmHg 89%
    05:00 +4°C° 0 mm 3 mps 724 mmHg 88%
    06:00 +5°C° 0 mm 2 mps 724 mmHg 86%
    07:00 +5°C° 0 mm 3 mps 724 mmHg 85%
    08:00 +5°C° 0 mm 3 mps 724 mmHg 83%
    09:00 +7°C° 0 mm 3 mps 724 mmHg 81%
    10:00 +7°C° 0 mm 3 mps 724 mmHg 80%
    11:00 +8°C° 0 mm 3 mps 723 mmHg 78%
    12:00 +7°C° 0 mm 4 mps 723 mmHg 76%
    13:00 +8°C° 0.1 mm 3 mps 723 mmHg 76%
    14:00 +8°C° 0.1 mm 3 mps 723 mmHg 77%
    15:00 +8°C° 0.1 mm 3 mps 723 mmHg 77%
    16:00 +7°C° 0.6 mm 3 mps 723 mmHg 83%
    17:00 +5°C° 0.6 mm 3 mps 723 mmHg 88%
    18:00 +5°C° 0.6 mm 2 mps 723 mmHg 93%
    19:00 +5°C° 0.1 mm 2 mps 724 mmHg 94%
    20:00 +4°C° 0.1 mm 3 mps 724 mmHg 94%
    21:00 +4°C° 0.1 mm 3 mps 724 mmHg 95%
    22:00 +4°C° 0 mm 3 mps 724 mmHg 95%
    23:00 +5°C° 0 mm 2 mps 724 mmHg 96%

    Tomorrow, 22 November, Friday

    Time Temperature Precipitation Wind Pressure Humidity
    00:00 +4°C° 0 mm 2 mps 724 mmHg 96%
    01:00 +4°C° 0 mm 2 mps 723 mmHg 96%
    02:00 +4°C° 0 mm 2 mps 723 mmHg 96%
    03:00 +4°C° 0 mm 2 mps 723 mmHg 95%
    04:00 +4°C° 0 mm 2 mps 722 mmHg 94%
    05:00 +4°C° 0 mm 2 mps 722 mmHg 92%
    06:00 +4°C° 0 mm 2 mps 722 mmHg 91%
    07:00 +4°C° 0 mm 3 mps 722 mmHg 88%
    08:00 +5°C° 0 mm 3 mps 721 mmHg 86%
    09:00 +7°C° 0 mm 3 mps 720 mmHg 83%
    10:00 +7°C° 0 mm 4 mps 719 mmHg 78%
    11:00 +8°C° 0 mm 5 mps 719 mmHg 73%
    12:00 +9°C° 0 mm 5 mps 718 mmHg 69%
    13:00 +10°C° 0 mm 5 mps 716 mmHg 70%
    14:00 +10°C° 0 mm 5 mps 715 mmHg 71%
    15:00 +10°C° 0 mm 5 mps 714 mmHg 72%
    16:00 +10°C° 0 mm 5 mps 713 mmHg 74%
    17:00 +11°C° 0 mm 4 mps 713 mmHg 75%
    18:00 +10°C° 0 mm 4 mps 712 mmHg 77%
    19:00 +10°C° 0.1 mm 4 mps 712 mmHg 78%
    20:00 +9°C° 0.1 mm 5 mps 712 mmHg 79%
    21:00 +10°C° 0.1 mm 5 mps 712 mmHg 80%
    22:00 +10°C° 0.2 mm 4 mps 712 mmHg 83%
    23:00 +10°C° 0.2 mm 3 mps 711 mmHg 85%

    Day after tomorrow, 23 November, Saturday

    Time Temperature Precipitation Wind Pressure Humidity
    00:00 +10°C° 0.2 mm 3 mps 711 mmHg 88%
    01:00 +10°C° 3.5 mm 3 mps 711 mmHg 91%
    02:00 +9°C° 3.5 mm 2 mps 710 mmHg 93%
    03:00 +9°C° 3.5 mm 2 mps 710 mmHg 96%
    04:00 +8°C° 0.7 mm 2 mps 710 mmHg 97%
    05:00 +9°C° 0.7 mm 1 mps 710 mmHg 97%
    06:00 +9°C° 0.7 mm 1 mps 711 mmHg 97%
    07:00 +9°C° 0 mm 1 mps 711 mmHg 96%
    08:00 +9°C° 0 mm 2 mps 712 mmHg 95%
    09:00 +9°C° 0 mm 2 mps 713 mmHg 94%
    10:00 +9°C° 0.1 mm 2 mps 713 mmHg 94%
    11:00 +9°C° 0.1 mm 2 mps 714 mmHg 94%
    12:00 +10°C° 0.1 mm 1 mps 714 mmHg 95%
    13:00 +9°C° 0.3 mm 2 mps 715 mmHg 95%
    14:00 +9°C° 0.3 mm 2 mps 715 mmHg 96%
    15:00 +9°C° 0.3 mm 2 mps 716 mmHg 96%
    16:00 +8°C° 0.3 mm 3 mps 717 mmHg 96%
    17:00 +8°C° 0.3 mm 3 mps 718 mmHg 95%
    18:00 +8°C° 0.3 mm 3 mps 719 mmHg 95%
    19:00 +7°C° 0.1 mm 3 mps 720 mmHg 95%
    20:00 +6°C° 0.1 mm 2 mps 721 mmHg 96%
    21:00 +5°C° 0.1 mm 2 mps 721 mmHg 96%
    22:00 +5°C° 0 mm 2 mps 722 mmHg 96%
    23:00 +6°C° 0 mm 1 mps 723 mmHg 96%

    24 November, Sunday

    Time Temperature Precipitation Wind Pressure Humidity
    00:00 +6°C° 0 mm 1 mps 724 mmHg 96%
    01:00 +5°C° 0 mm 1 mps 724 mmHg 96%
    02:00 +5°C° 0 mm 1 mps 724 mmHg 97%
    03:00 +4°C° 0 mm 1 mps 725 mmHg 97%
    04:00 +4°C° 0 mm 1 mps 726 mmHg 97%
    05:00 +4°C° 0 mm 1 mps 726 mmHg 97%
    06:00 +4°C° 0 mm 1 mps 727 mmHg 97%
    07:00 +5°C° 0 mm 1 mps 727 mmHg 96%
    08:00 +6°C° 0 mm 1 mps 728 mmHg 95%
    09:00 +7°C° 0 mm 1 mps 729 mmHg 95%
    10:00 +7°C° 0 mm 2 mps 729 mmHg 92%
    11:00 +8°C° 0 mm 2 mps 729 mmHg 89%
    12:00 +9°C° 0 mm 2 mps 730 mmHg 86%
    13:00 +9°C° 0 mm 2 mps 730 mmHg 86%
    14:00 +9°C° 0 mm 2 mps 730 mmHg 87%
    15:00 +9°C° 0 mm 2 mps 730 mmHg 88%
    16:00 +8°C° 0 mm 2 mps 730 mmHg 90%
    17:00 +7°C° 0 mm 2 mps 731 mmHg 93%
    18:00 +6°C° 0 mm 2 mps 731 mmHg 96%
    19:00 +6°C° 0 mm 2 mps 731 mmHg 97%
    20:00 +6°C° 0 mm 2 mps 731 mmHg 97%
    21:00 +6°C° 0 mm 2 mps 731 mmHg 97%
    22:00 +5°C° 0 mm 2 mps 731 mmHg 97%
    23:00 +5°C° 0 mm 2 mps 731 mmHg 97%

    25 November, Monday

    Time Temperature Precipitation Wind Pressure Humidity
    00:00 +4°C° 0 mm 3 mps 731 mmHg 96%
    01:00 +5°C° 0 mm 3 mps 731 mmHg 95%
    02:00 +5°C° 0 mm 3 mps 731 mmHg 94%
    03:00 +5°C° 0 mm 3 mps 731 mmHg 92%
    04:00 +5°C° 0.1 mm 3 mps 731 mmHg 91%
    05:00 +7°C° 0.1 mm 3 mps 731 mmHg 91%
    06:00 +7°C° 0.1 mm 3 mps 731 mmHg 90%
    07:00 +7°C° 0.1 mm 3 mps 731 mmHg 90%
    08:00 +7°C° 0.1 mm 3 mps 731 mmHg 90%
    09:00 +7°C° 0.1 mm 3 mps 731 mmHg 89%
    10:00 +8°C° 0 mm 3 mps 731 mmHg 88%
    11:00 +9°C° 0 mm 3 mps 731 mmHg 86%
    12:00 +10°C° 0 mm 3 mps 731 mmHg 84%
    13:00 +10°C° 0 mm 3 mps 731 mmHg 85%
    14:00 +10°C° 0 mm 3 mps 731 mmHg 86%
    15:00 +10°C° 0 mm 3 mps 730 mmHg 87%
    16:00 +10°C° 0.1 mm 3 mps 730 mmHg 90%
    17:00 +9°C° 0.1 mm 3 mps 731 mmHg 93%
    18:00 +9°C° 0.1 mm 2 mps 731 mmHg 95%
    19:00 +9°C° 0 mm 2 mps 731 mmHg 96%
    20:00 +10°C° 0 mm 2 mps 731 mmHg 96%
    21:00 +10°C° 0 mm 3 mps 731 mmHg 97%
    22:00 +10°C° 0 mm 2 mps 731 mmHg 97%
    23:00 +10°C° 0 mm 2 mps 731 mmHg 97%

    26 November, Tuesday

    Time Temperature Precipitation Wind Pressure Humidity
    00:00 +10°C° 0 mm 2 mps 731 mmHg 97%
    01:00 +10°C° 0.2 mm 3 mps 731 mmHg 97%
    02:00 +10°C° 0.2 mm 3 mps 730 mmHg 97%
    03:00 +10°C° 0.2 mm 3 mps 730 mmHg 97%
    04:00 +11°C° 0.9 mm 3 mps 730 mmHg 97%
    05:00 +11°C° 0.9 mm 3 mps 730 mmHg 98%
    06:00 +11°C° 0.9 mm 3 mps 729 mmHg 98%
    07:00 +11°C° 0.5 mm 3 mps 729 mmHg 97%
    08:00 +11°C° 0.5 mm 3 mps 729 mmHg 97%
    09:00 +11°C° 0.5 mm 4 mps 729 mmHg 96%
    10:00 +11°C° 0.1 mm 4 mps 729 mmHg 95%
    11:00 +12°C° 0.1 mm 4 mps 728 mmHg 93%
    12:00 +12°C° 0.1 mm 4 mps 728 mmHg 92%
    13:00 +12°C° 0.2 mm 4 mps 728 mmHg 93%
    14:00 +12°C° 0.2 mm 4 mps 727 mmHg 93%
    15:00 +12°C° 0.2 mm 4 mps 727 mmHg 94%
    16:00 +12°C° 0 mm 4 mps 727 mmHg 94%
    17:00 +12°C° 0 mm 3 mps 727 mmHg 95%
    18:00 +12°C° 0 mm 3 mps 727 mmHg 95%
    19:00 +12°C° 0.2 mm 4 mps 726 mmHg 94%
    20:00 +12°C° 0.2 mm 4 mps 726 mmHg 94%
    21:00 +13°C° 0.2 mm 4 mps 726 mmHg 93%
    22:00 +13°C° 0.1 mm 5 mps 725 mmHg 91%
    23:00 +13°C° 0.1 mm 5 mps 725 mmHg 89%
    Show more